| time (UTC) | temp F | wind direction | speed knots | gust knots | rain 1hr in | rain 24hr in | rain mn in | humidity % | barometer mb |
| 20260506143052 | 54 | 216 | 11.3 | 20.9 | 0.00 | 0.00 | 0.00 | 95 | 1010.7 |
| 20260506142550 | 54 | 153 | 15.6 | 20.0 | 0.00 | 0.00 | 0.00 | 95 | 1010.5 |
| 20260506142048 | 54 | 198 | 12.2 | 19.1 | 0.00 | 0.00 | 0.00 | 95 | 1010.7 |
| 20260506141545 | 54 | 235 | 12.2 | 18.2 | 0.00 | 0.00 | 0.00 | 95 | 1010.7 |
| 20260506141044 | 54 | 211 | 14.8 | 22.6 | 0.00 | 0.00 | 0.00 | 95 | 1010.9 |
| 20260506140541 | 54 | 180 | 12.2 | 20.0 | 0.00 | 0.00 | 0.00 | 95 | 1011.1 |
| 20260506140038 | 54 | 195 | 14.8 | 20.9 | 0.00 | 0.00 | 0.00 | 95 | 1011.1 |
| 20260506135535 | 54 | 203 | 15.6 | 20.0 | 0.00 | 0.00 | 0.00 | 95 | 1011.0 |
| 20260506135031 | 54 | 211 | 13.0 | 18.2 | 0.00 | 0.00 | 0.00 | 95 | 1011.1 |
| 20260506134527 | 54 | 214 | 13.0 | 20.0 | 0.00 | 0.00 | 0.00 | 96 | 1011.0 |
| 20260506134024 | 54 | 187 | 18.2 | 21.7 | 0.00 | 0.00 | 0.00 | 96 | 1011.1 |
| 20260506133521 | 54 | 232 | 18.2 | 22.6 | 0.00 | 0.00 | 0.00 | 96 | 1011.4 |
| 20260506133018 | 54 | 225 | 14.8 | 19.1 | 0.00 | 0.00 | 0.00 | 96 | 1011.2 |
| 20260506132515 | 54 | 187 | 17.4 | 22.6 | 0.00 | 0.00 | 0.00 | 96 | 1011.0 |
| 20260506132012 | 54 | 229 | 13.9 | 20.0 | 0.00 | 0.00 | 0.00 | 96 | 1011.4 |
| 20260506131509 | 54 | 201 | 11.3 | 18.2 | 0.00 | 0.00 | 0.00 | 96 | 1011.1 |
| 20260506131006 | 54 | 187 | 13.9 | 20.9 | 0.00 | 0.00 | 0.00 | 96 | 1011.1 |
| 20260506130502 | 54 | 156 | 11.3 | 20.0 | 0.00 | 0.00 | 0.00 | 96 | 1010.9 |
| 20260506125959 | 53 | 231 | 13.0 | 21.7 | 0.00 | 0.00 | 0.00 | 96 | 1011.0 |
| 20260506125458 | 53 | 222 | 13.9 | 21.7 | 0.00 | 0.00 | 0.00 | 96 | 1010.9 |
| 20260506124955 | 53 | 191 | 14.8 | 20.0 | 0.00 | 0.00 | 0.00 | 96 | 1010.8 |
| 20260506124453 | 53 | 230 | 12.2 | 21.7 | 0.00 | 0.00 | 0.00 | 96 | 1010.8 |
| 20260506123951 | 53 | 178 | 13.0 | 19.1 | 0.00 | 0.00 | 0.00 | 96 | 1011.0 |
| 20260506123449 | 53 | 199 | 16.5 | 20.9 | 0.00 | 0.00 | 0.00 | 96 | 1011.0 |
| 20260506122946 | 53 | 207 | 13.0 | 20.9 | 0.00 | 0.00 | 0.00 | 96 | 1011.0 |
| 20260506122443 | 53 | 154 | 13.0 | 19.1 | 0.00 | 0.00 | 0.00 | 96 | 1011.2 |
| 20260506121941 | 53 | 227 | 11.3 | 20.9 | 0.00 | 0.00 | 0.00 | 96 | 1011.2 |
| 20260506121438 | 53 | 197 | 12.2 | 20.9 | 0.00 | 0.00 | 0.00 | 96 | 1011.1 |
| 20260506120934 | 53 | 208 | 13.9 | 21.7 | 0.00 | 0.00 | 0.00 | 97 | 1011.2 |
| 20260506120432 | 53 | 213 | 14.8 | 23.5 | 0.00 | 0.00 | 0.00 | 96 | 1011.3 |
| 20260506115929 | 53 | 193 | 13.9 | 20.9 | 0.00 | 0.00 | 0.00 | 97 | 1011.3 |
| 20260506115427 | 53 | 199 | 15.6 | 22.6 | 0.00 | 0.00 | 0.00 | 97 | 1011.4 |
| 20260506114925 | 53 | 182 | 15.6 | 22.6 | 0.00 | 0.00 | 0.00 | 97 | 1011.3 |
| 20260506114423 | 53 | 173 | 19.1 | 25.2 | 0.00 | 0.00 | 0.00 | 97 | 1011.5 |
| 20260506113921 | 53 | 199 | 13.0 | 22.6 | 0.00 | 0.00 | 0.00 | 97 | 1011.1 |
| 20260506113419 | 53 | 199 | 17.4 | 23.5 | 0.00 | 0.00 | 0.00 | 97 | 1011.4 |
| 20260506112915 | 53 | 221 | 16.5 | 21.7 | 0.00 | 0.00 | 0.00 | 97 | 1011.2 |
| 20260506112413 | 53 | 219 | 13.9 | 23.5 | 0.00 | 0.00 | 0.00 | 97 | 1010.9 |
| 20260506111910 | 53 | 185 | 13.9 | 19.1 | 0.00 | 0.00 | 0.00 | 97 | 1011.0 |
| 20260506111408 | 53 | 208 | 13.0 | 20.0 | 0.00 | 0.00 | 0.00 | 97 | 1011.1 |
| 20260506110905 | 53 | 192 | 11.3 | 19.1 | 0.00 | 0.00 | 0.00 | 97 | 1011.1 |
| 20260506110402 | 53 | 189 | 13.0 | 22.6 | 0.00 | 0.00 | 0.00 | 97 | 1011.2 |
| 20260506105858 | 53 | 175 | 12.2 | 19.1 | 0.00 | 0.00 | 0.00 | 97 | 1011.3 |
| 20260506105355 | 53 | 165 | 9.6 | 20.9 | 0.00 | 0.00 | 0.00 | 96 | 1011.2 |
| 20260506104852 | 53 | 200 | 16.5 | 20.0 | 0.00 | 0.00 | 0.00 | 96 | 1011.3 |
| 20260506104350 | 53 | 186 | 12.2 | 21.7 | 0.00 | 0.00 | 0.00 | 96 | 1011.2 |
| 20260506103847 | 53 | 201 | 15.6 | 21.7 | 0.00 | 0.00 | 0.00 | 96 | 1010.9 |
| 20260506103345 | 53 | 197 | 12.2 | 20.0 | 0.00 | 0.00 | 0.00 | 96 | 1010.9 |
| 20260506102842 | 53 | 218 | 13.0 | 25.2 | 0.00 | 0.00 | 0.00 | 96 | 1011.0 |
| 20260506102340 | 53 | 238 | 12.2 | 21.7 | 0.00 | 0.00 | 0.00 | 96 | 1011.0 |
| 20260506101837 | 53 | 202 | 14.8 | 19.1 | 0.00 | 0.00 | 0.00 | 96 | 1011.0 |
| 20260506101333 | 53 | 209 | 12.2 | 20.0 | 0.00 | 0.00 | 0.00 | 96 | 1011.0 |
| 20260506100831 | 53 | 190 | 15.6 | 20.0 | 0.00 | 0.00 | 0.00 | 96 | 1010.9 |
| 20260506100329 | 53 | 186 | 13.9 | 20.9 | 0.00 | 0.00 | 0.00 | 96 | 1010.9 |
| 20260506095827 | 53 | 162 | 13.9 | 20.0 | 0.00 | 0.00 | 0.00 | 96 | 1010.9 |
| 20260506095324 | 53 | 220 | 12.2 | 20.9 | 0.00 | 0.00 | 0.00 | 96 | 1010.8 |
| 20260506094821 | 53 | 206 | 13.9 | 19.1 | 0.00 | 0.00 | 0.00 | 96 | 1010.8 |
| 20260506094320 | 53 | 204 | 15.6 | 20.0 | 0.00 | 0.00 | 0.00 | 96 | 1010.8 |
| 20260506093817 | 53 | 191 | 19.1 | 26.1 | 0.00 | 0.00 | 0.00 | 96 | 1011.0 |
| 20260506093314 | 53 | 203 | 13.9 | 19.1 | 0.00 | 0.00 | 0.00 | 96 | 1011.0 |
| 20260506092812 | 53 | 206 | 15.6 | 20.9 | 0.00 | 0.00 | 0.00 | 96 | 1011.0 |
| 20260506092309 | 53 | 223 | 14.8 | 21.7 | 0.00 | 0.00 | 0.00 | 96 | 1010.9 |
| 20260506091807 | 53 | 195 | 13.9 | 22.6 | 0.00 | 0.00 | 0.00 | 96 | 1010.9 |
| 20260506091304 | 53 | 208 | 15.6 | 21.7 | 0.00 | 0.00 | 0.00 | 96 | 1010.9 |
| 20260506090802 | 53 | 193 | 13.0 | 20.0 | 0.00 | 0.00 | 0.00 | 95 | 1011.0 |
| 20260506090259 | 54 | 206 | 15.6 | 20.0 | 0.00 | 0.00 | 0.00 | 95 | 1011.1 |
| 20260506085755 | 54 | 203 | 15.6 | 22.6 | 0.00 | 0.00 | 0.00 | 95 | 1011.5 |
| 20260506085252 | 54 | 205 | 11.3 | 18.2 | 0.00 | 0.00 | 0.00 | 95 | 1011.2 |
| 20260506084748 | 54 | 143 | 15.6 | 22.6 | 0.00 | 0.00 | 0.00 | 95 | 1011.0 |
| 20260506084245 | 54 | 186 | 13.9 | 20.0 | 0.00 | 0.00 | 0.00 | 95 | 1011.1 |
| 20260506083742 | 54 | 178 | 12.2 | 20.0 | 0.00 | 0.00 | 0.00 | 95 | 1011.2 |
| 20260506083239 | 54 | 176 | 13.0 | 21.7 | 0.00 | 0.00 | 0.00 | 95 | 1011.2 |
| 20260506082737 | 54 | 200 | 16.5 | 25.2 | 0.00 | 0.00 | 0.00 | 95 | 1011.3 |
| 20260506082232 | 54 | 191 | 13.9 | 22.6 | 0.00 | 0.00 | 0.00 | 95 | 1011.1 |
| 20260506081730 | 54 | 190 | 14.8 | 21.7 | 0.00 | 0.00 | 0.00 | 95 | 1011.3 |
| 20260506081227 | 54 | 211 | 15.6 | 20.9 | 0.00 | 0.00 | 0.00 | 95 | 1011.3 |
| 20260506080725 | 54 | 202 | 13.9 | 20.9 | 0.00 | 0.00 | 0.00 | 95 | 1011.4 |
| 20260506080221 | 54 | 178 | 16.5 | 19.1 | 0.00 | 0.00 | 0.00 | 95 | 1011.3 |
| 20260506073206 | 54 | 190 | 16.5 | 20.0 | 0.00 | 0.00 | 0.00 | 94 | 1011.4 |
| 20260506072702 | 54 | 199 | 16.5 | 20.9 | 0.00 | 0.00 | 0.00 | 94 | 1011.7 |
| 20260506072200 | 54 | 200 | 17.4 | 25.2 | 0.00 | 0.00 | 0.00 | 94 | 1011.5 |
| 20260506071657 | 54 | 202 | 11.3 | 21.7 | 0.00 | 0.00 | 0.00 | 94 | 1011.6 |
| 20260506071155 | 54 | 210 | 15.6 | 26.1 | 0.00 | 0.00 | 0.00 | 94 | 1011.6 |
| 20260506070651 | 54 | 210 | 15.6 | 20.9 | 0.00 | 0.00 | 0.00 | 94 | 1011.7 |
| 20260506070148 | 54 | 191 | 15.6 | 23.5 | 0.00 | 0.00 | 0.00 | 94 | 1011.6 |
| 20260506062126 | 54 | 223 | 13.0 | 22.6 | 0.00 | 0.00 | 0.00 | 93 | 1011.5 |
| 20260506061621 | 54 | 210 | 19.1 | 22.6 | 0.00 | 0.00 | 0.00 | 93 | 1011.4 |
| 20260506061120 | 54 | 200 | 19.1 | 22.6 | 0.00 | 0.00 | 0.00 | 93 | 1011.7 |
| 20260506060618 | 54 | 191 | 19.1 | 25.2 | 0.00 | 0.00 | 0.00 | 93 | 1011.6 |
| 20260506060114 | 54 | 232 | 16.5 | 26.1 | 0.00 | 0.00 | 0.00 | 93 | 1011.6 |
| 20260506051046 | 55 | 202 | 21.7 | 26.1 | 0.00 | 0.00 | 0.00 | 92 | 1011.9 |
| 20260506050544 | 55 | 204 | 22.6 | 26.9 | 0.00 | 0.00 | 0.00 | 92 | 1011.7 |
| 20260506045034 | 55 | 165 | 20.9 | 27.8 | 0.00 | 0.00 | 0.00 | 92 | 1011.9 |
| 20260506044532 | 55 | 157 | 21.7 | 28.7 | 0.00 | 0.00 | 0.00 | 92 | 1011.9 |
| 20260506044029 | 55 | 230 | 21.7 | 26.1 | 0.00 | 0.00 | 0.00 | 92 | 1012.0 |
| 20260506043526 | 55 | 206 | 23.5 | 26.9 | 0.00 | 0.00 | 0.00 | 92 | 1012.2 |
| 20260506043025 | 55 | 229 | 20.9 | 26.1 | 0.00 | 0.00 | 0.00 | 91 | 1011.9 |
| 20260506042523 | 55 | 221 | 20.9 | 26.9 | 0.00 | 0.00 | 0.00 | 91 | 1011.9 |
| 20260506042021 | 55 | 182 | 20.9 | 27.8 | 0.00 | 0.00 | 0.00 | 91 | 1011.8 |
| 20260506041519 | 55 | 182 | 20.0 | 28.7 | 0.00 | 0.00 | 0.00 | 91 | 1012.0 |
| 20260506041016 | 55 | 198 | 20.0 | 26.9 | 0.00 | 0.00 | 0.00 | 91 | 1012.0 |
| 20260506040514 | 55 | 189 | 20.9 | 27.8 | 0.00 | 0.00 | 0.00 | 91 | 1012.1 |
| 20260506040009 | 55 | 184 | 22.6 | 30.4 | 0.00 | 0.00 | 0.00 | 91 | 1012.0 |
| 20260506035506 | 55 | 219 | 26.1 | 28.7 | 0.00 | 0.00 | 0.00 | 90 | 1011.7 |
| 20260506035003 | 55 | 196 | 20.9 | 28.7 | 0.00 | 0.00 | 0.00 | 90 | 1011.8 |
| 20260506034501 | 55 | 184 | 23.5 | 28.7 | 0.00 | 0.00 | 0.00 | 90 | 1012.0 |
| 20260506033957 | 56 | 198 | 22.6 | 29.5 | 0.00 | 0.00 | 0.00 | 90 | 1011.8 |
| 20260506033455 | 56 | 209 | 24.3 | 30.4 | 0.00 | 0.00 | 0.00 | 90 | 1011.8 |
| 20260506032951 | 56 | 219 | 24.3 | 29.5 | 0.00 | 0.00 | 0.00 | 90 | 1011.9 |
| 20260506032449 | 56 | 196 | 25.2 | 31.3 | 0.00 | 0.00 | 0.00 | 90 | 1011.6 |
| 20260506031945 | 56 | 208 | 27.8 | 29.5 | 0.00 | 0.00 | 0.00 | 90 | 1011.8 |
| 20260506031443 | 56 | 224 | 21.7 | 29.5 | 0.00 | 0.00 | 0.00 | 90 | 1011.8 |
| 20260506030940 | 56 | 205 | 20.9 | 28.7 | 0.00 | 0.00 | 0.00 | 90 | 1011.8 |
| 20260506030438 | 56 | 178 | 21.7 | 28.7 | 0.00 | 0.00 | 0.00 | 90 | 1011.9 |
| 20260506025934 | 56 | 193 | 26.1 | 29.5 | 0.00 | 0.00 | 0.00 | 90 | 1011.9 |
| 20260506025431 | 56 | 204 | 20.9 | 27.8 | 0.00 | 0.00 | 0.00 | 90 | 1011.9 |
| 20260506024928 | 56 | 203 | 26.1 | 28.7 | 0.00 | 0.00 | 0.00 | 90 | 1012.1 |
| 20260506024425 | 56 | 196 | 23.5 | 28.7 | 0.00 | 0.00 | 0.00 | 90 | 1011.9 |
| 20260506023921 | 56 | 227 | 21.7 | 27.8 | 0.00 | 0.00 | 0.00 | 90 | 1011.8 |
| 20260506023418 | 56 | 199 | 25.2 | 26.9 | 0.00 | 0.00 | 0.00 | 89 | 1011.7 |
| 20260506022914 | 56 | 190 | 23.5 | 27.8 | 0.00 | 0.00 | 0.00 | 89 | 1011.7 |
| 20260506022412 | 57 | 196 | 26.1 | 31.3 | 0.00 | 0.00 | 0.00 | 89 | 1011.8 |
| 20260506021910 | 57 | 185 | 26.1 | 31.3 | 0.00 | 0.00 | 0.00 | 89 | 1011.7 |
| 20260506021407 | 57 | 210 | 26.1 | 28.7 | 0.00 | 0.00 | 0.00 | 89 | 1011.9 |
| 20260506020904 | 57 | 201 | 20.0 | 26.9 | 0.00 | 0.00 | 0.00 | 89 | 1011.9 |
| 20260506020402 | 57 | 207 | 21.7 | 28.7 | 0.00 | 0.00 | 0.00 | 89 | 1011.8 |
| 20260506015859 | 56 | 191 | 26.9 | 29.5 | 0.00 | 0.00 | 0.00 | 89 | 1011.8 |
| 20260506015356 | 56 | 231 | 25.2 | 30.4 | 0.00 | 0.00 | 0.00 | 89 | 1011.6 |
| 20260506014853 | 56 | 193 | 21.7 | 30.4 | 0.00 | 0.00 | 0.00 | 88 | 1011.8 |
| 20260506014350 | 56 | 193 | 20.0 | 27.8 | 0.00 | 0.00 | 0.00 | 88 | 1011.5 |
| 20260506013846 | 56 | 205 | 21.7 | 28.7 | 0.00 | 0.00 | 0.00 | 88 | 1011.6 |
| 20260506013344 | 56 | 194 | 19.1 | 27.8 | 0.00 | 0.00 | 0.00 | 88 | 1011.6 |
| 20260506012840 | 56 | 203 | 20.0 | 26.1 | 0.00 | 0.00 | 0.00 | 88 | 1011.7 |
| 20260506012337 | 56 | 242 | 20.0 | 27.8 | 0.00 | 0.00 | 0.00 | 88 | 1011.8 |
| 20260506011835 | 56 | 233 | 17.4 | 27.8 | 0.00 | 0.00 | 0.00 | 88 | 1011.6 |
| 20260506011331 | 57 | 212 | 19.1 | 27.8 | 0.00 | 0.00 | 0.00 | 88 | 1011.6 |
| 20260506010829 | 57 | 200 | 21.7 | 26.9 | 0.00 | 0.00 | 0.00 | 88 | 1011.4 |
| 20260506010326 | 56 | 205 | 14.8 | 26.1 | 0.00 | 0.00 | 0.00 | 88 | 1011.6 |
| 20260506005823 | 56 | 171 | 17.4 | 26.1 | 0.00 | 0.00 | 0.00 | 87 | 1011.7 |
| 20260506005320 | 57 | 194 | 22.6 | 27.8 | 0.00 | 0.00 | 0.00 | 87 | 1011.3 |
| 20260506004816 | 57 | 205 | 16.5 | 23.5 | 0.00 | 0.00 | 0.00 | 87 | 1011.5 |
| 20260506004314 | 57 | 200 | 24.3 | 30.4 | 0.00 | 0.00 | 0.00 | 87 | 1011.5 |
| 20260506003809 | 57 | 189 | 16.5 | 27.8 | 0.00 | 0.00 | 0.00 | 87 | 1011.2 |
| 20260506003306 | 57 | 177 | 20.9 | 28.7 | 0.00 | 0.00 | 0.00 | 87 | 1011.2 |
| 20260506002802 | 57 | 202 | 20.9 | 27.8 | 0.00 | 0.00 | 0.00 | 87 | 1011.1 |
| 20260506002259 | 57 | 207 | 24.3 | 30.4 | 0.00 | 0.00 | 0.00 | 87 | 1011.1 |
| 20260506001754 | 57 | 196 | 23.5 | 28.7 | 0.00 | 0.00 | 0.00 | 86 | 1011.2 |
| 20260506001252 | 58 | 210 | 25.2 | 30.4 | 0.00 | 0.00 | 0.00 | 85 | 1011.1 |
| 20260506000749 | 58 | 210 | 25.2 | 30.4 | 0.00 | 0.00 | 0.00 | 85 | 1011.1 |
| 20260506000247 | 58 | 200 | 25.2 | 30.4 | 0.00 | 0.00 | 0.00 | 85 | 1011.0 |
| 20260505235743 | 58 | 188 | 28.7 | 33.0 | 0.00 | 0.00 | 0.00 | 85 | 1010.9 |
| 20260505235241 | 58 | 219 | 27.8 | 30.4 | 0.00 | 0.00 | 0.00 | 85 | 1010.8 |
| 20260505234738 | 58 | 198 | 27.8 | 35.6 | 0.00 | 0.00 | 0.00 | 85 | 1010.3 |
| 20260505234235 | 58 | 188 | 24.3 | 33.0 | 0.00 | 0.00 | 0.00 | 85 | 1010.5 |
| 20260505233731 | 58 | 199 | 27.8 | 33.0 | 0.00 | 0.00 | 0.00 | 85 | 1010.2 |
| 20260505233230 | 58 | 188 | 26.1 | 29.5 | 0.00 | 0.00 | 0.00 | 85 | 1010.4 |
| 20260505232726 | 58 | 196 | 24.3 | 30.4 | 0.00 | 0.00 | 0.00 | 85 | 1010.1 |
| 20260505232224 | 58 | 195 | 25.2 | 31.3 | 0.00 | 0.00 | 0.00 | 85 | 1010.2 |
| 20260505231721 | 58 | 189 | 27.8 | 33.9 | 0.00 | 0.00 | 0.00 | 85 | 1010.1 |
| 20260505231220 | 58 | 207 | 26.1 | 33.0 | 0.00 | 0.00 | 0.00 | 85 | 1010.0 |
| 20260505230717 | 58 | 196 | 25.2 | 30.4 | 0.00 | 0.00 | 0.00 | 85 | 1010.0 |
| 20260505230214 | 58 | 205 | 26.9 | 30.4 | 0.00 | 0.00 | 0.00 | 85 | 1010.0 |
| 20260505225710 | 58 | 176 | 25.2 | 33.9 | 0.00 | 0.00 | 0.00 | 85 | 1010.1 |
| 20260505225207 | 58 | 196 | 25.2 | 31.3 | 0.00 | 0.00 | 0.00 | 85 | 1009.9 |
| 20260505224702 | 58 | 202 | 23.5 | 30.4 | 0.00 | 0.00 | 0.00 | 85 | 1010.0 |
| 20260505224201 | 58 | 210 | 25.2 | 34.8 | 0.00 | 0.00 | 0.00 | 85 | 1009.6 |
| 20260505223658 | 58 | 174 | 23.5 | 31.3 | 0.00 | 0.00 | 0.00 | 85 | 1009.8 |
| 20260505223153 | 58 | 188 | 18.2 | 29.5 | 0.00 | 0.00 | 0.00 | 85 | 1009.7 |
| 20260505222650 | 58 | 220 | 17.4 | 27.8 | 0.00 | 0.00 | 0.00 | 85 | 1009.8 |
| 20260505222146 | 58 | 192 | 21.7 | 27.8 | 0.00 | 0.00 | 0.00 | 85 | 1009.7 |
| 20260505221643 | 58 | 179 | 20.0 | 25.2 | 0.00 | 0.00 | 0.00 | 85 | 1009.7 |
| 20260505221140 | 58 | 243 | 13.9 | 21.7 | 0.00 | 0.00 | 0.00 | 84 | 1009.6 |
| 20260505220637 | 58 | 177 | 19.1 | 27.8 | 0.00 | 0.00 | 0.00 | 84 | 1009.7 |
| 20260505220135 | 58 | 176 | 14.8 | 22.6 | 0.00 | 0.00 | 0.00 | 84 | 1009.7 |
| 20260505215632 | 58 | 205 | 23.5 | 28.7 | 0.00 | 0.00 | 0.00 | 84 | 1009.5 |
| 20260505215130 | 58 | 191 | 18.2 | 23.5 | 0.00 | 0.00 | 0.00 | 84 | 1009.4 |
| 20260505214628 | 58 | 162 | 20.0 | 26.9 | 0.00 | 0.00 | 0.00 | 84 | 1009.6 |
| 20260505214125 | 58 | 184 | 19.1 | 25.2 | 0.00 | 0.00 | 0.00 | 84 | 1009.5 |
| 20260505213622 | 58 | 173 | 15.6 | 27.8 | 0.00 | 0.00 | 0.00 | 84 | 1009.7 |
| 20260505213119 | 58 | 200 | 19.1 | 30.4 | 0.00 | 0.00 | 0.00 | 83 | 1009.4 |
| 20260505212615 | 59 | 195 | 13.9 | 22.6 | 0.00 | 0.00 | 0.00 | 83 | 1009.3 |
| 20260505212113 | 59 | 221 | 20.0 | 25.2 | 0.00 | 0.00 | 0.00 | 84 | 1009.3 |
| 20260505211609 | 59 | 199 | 16.5 | 23.5 | 0.00 | 0.00 | 0.00 | 84 | 1009.2 |
| 20260505211107 | 58 | 197 | 13.9 | 25.2 | 0.00 | 0.00 | 0.00 | 84 | 1009.2 |
| 20260505210603 | 58 | 207 | 18.2 | 26.9 | 0.00 | 0.00 | 0.00 | 84 | 1009.2 |
| 20260505210100 | 58 | 228 | 18.2 | 27.8 | 0.00 | 0.00 | 0.00 | 84 | 1009.3 |
| 20260505205558 | 58 | 213 | 17.4 | 30.4 | 0.00 | 0.00 | 0.00 | 85 | 1009.5 |
| 20260505205055 | 58 | 156 | 18.2 | 28.7 | 0.00 | 0.00 | 0.00 | 85 | 1009.4 |
| 20260505204552 | 58 | 207 | 17.4 | 23.5 | 0.00 | 0.00 | 0.00 | 85 | 1009.2 |
| 20260505204050 | 58 | 190 | 16.5 | 28.7 | 0.00 | 0.00 | 0.00 | 85 | 1009.5 |
| 20260505203546 | 58 | 214 | 19.1 | 26.1 | 0.00 | 0.00 | 0.00 | 85 | 1009.4 |
| 20260505203043 | 58 | 202 | 15.6 | 20.0 | 0.00 | 0.00 | 0.00 | 85 | 1009.3 |
| 20260505202539 | 58 | 234 | 14.8 | 22.6 | 0.00 | 0.00 | 0.00 | 85 | 1009.2 |
| 20260505202035 | 58 | 199 | 15.6 | 23.5 | 0.00 | 0.00 | 0.00 | 85 | 1009.6 |
| 20260505201532 | 58 | 186 | 13.0 | 20.9 | 0.00 | 0.00 | 0.00 | 85 | 1009.4 |
| 20260505201030 | 58 | 162 | 14.8 | 20.0 | 0.00 | 0.00 | 0.00 | 85 | 1009.3 |
| 20260505200528 | 58 | 216 | 14.8 | 22.6 | 0.00 | 0.00 | 0.00 | 85 | 1009.7 |
| 20260505200025 | 58 | 163 | 17.4 | 22.6 | 0.00 | 0.00 | 0.00 | 85 | 1009.4 |
| 20260505195520 | 58 | 212 | 14.8 | 20.9 | 0.00 | 0.00 | 0.00 | 86 | 1009.5 |
| 20260505195018 | 58 | 213 | 13.0 | 19.1 | 0.00 | 0.00 | 0.00 | 86 | 1009.5 |
| 20260505194515 | 58 | 181 | 16.5 | 21.7 | 0.00 | 0.00 | 0.00 | 86 | 1009.9 |
| 20260505194010 | 58 | 180 | 16.5 | 20.9 | 0.00 | 0.00 | 0.00 | 86 | 1009.8 |
| 20260505193508 | 58 | 229 | 18.2 | 21.7 | 0.00 | 0.00 | 0.00 | 86 | 1009.8 |
| 20260505193005 | 58 | 209 | 16.5 | 20.0 | 0.00 | 0.00 | 0.00 | 86 | 1009.9 |
| 20260505192503 | 58 | 162 | 14.8 | 21.7 | 0.00 | 0.00 | 0.00 | 85 | 1009.9 |
| 20260505192001 | 58 | 202 | 13.0 | 18.2 | 0.00 | 0.00 | 0.00 | 85 | 1010.2 |
| 20260505191459 | 58 | 178 | 7.8 | 16.5 | 0.00 | 0.00 | 0.00 | 86 | 1010.3 |
| 20260505190956 | 58 | 184 | 13.9 | 16.5 | 0.00 | 0.00 | 0.00 | 86 | 1010.6 |
| 20260505190450 | 58 | 204 | 11.3 | 19.1 | 0.00 | 0.00 | 0.00 | 86 | 1010.4 |
| 20260505185946 | 58 | 183 | 14.8 | 21.7 | 0.00 | 0.00 | 0.00 | 86 | 1010.6 |
| 20260505185444 | 58 | 208 | 15.6 | 18.2 | 0.00 | 0.00 | 0.00 | 86 | 1010.5 |
| 20260505184940 | 58 | 184 | 12.2 | 22.6 | 0.00 | 0.00 | 0.00 | 86 | 1010.7 |
| 20260505184437 | 58 | 214 | 12.2 | 19.1 | 0.00 | 0.00 | 0.00 | 86 | 1010.8 |
| 20260505183933 | 58 | 206 | 14.8 | 20.9 | 0.00 | 0.00 | 0.00 | 86 | 1010.8 |
| 20260505183430 | 58 | 197 | 13.0 | 18.2 | 0.00 | 0.00 | 0.00 | 86 | 1010.8 |
| 20260505182927 | 58 | 211 | 14.8 | 20.0 | 0.00 | 0.00 | 0.00 | 86 | 1011.1 |
| 20260505182424 | 58 | 181 | 13.9 | 19.1 | 0.00 | 0.00 | 0.00 | 86 | 1010.9 |
| 20260505181920 | 58 | 177 | 13.0 | 19.1 | 0.00 | 0.00 | 0.00 | 86 | 1010.9 |
| 20260505181418 | 58 | 211 | 15.6 | 19.1 | 0.00 | 0.00 | 0.00 | 86 | 1011.0 |
| 20260505180914 | 58 | 176 | 12.2 | 16.5 | 0.00 | 0.00 | 0.00 | 86 | 1011.2 |
| 20260505180411 | 58 | 218 | 11.3 | 16.5 | 0.00 | 0.00 | 0.00 | 86 | 1011.1 |
| 20260505175908 | 58 | 180 | 13.9 | 18.2 | 0.00 | 0.00 | 0.00 | 87 | 1011.3 |
| 20260505175404 | 58 | 204 | 11.3 | 14.8 | 0.00 | 0.00 | 0.00 | 86 | 1011.2 |
| 20260505174900 | 58 | 210 | 8.7 | 14.8 | 0.00 | 0.00 | 0.00 | 87 | 1011.4 |
| 20260505174358 | 58 | 170 | 12.2 | 13.9 | 0.00 | 0.00 | 0.00 | 87 | 1011.4 |
| 20260505173854 | 58 | 193 | 10.4 | 13.9 | 0.00 | 0.00 | 0.00 | 87 | 1011.4 |
| 20260505173351 | 58 | 190 | 7.8 | 13.9 | 0.00 | 0.00 | 0.00 | 87 | 1011.4 |
| 20260505172848 | 58 | 179 | 11.3 | 15.6 | 0.00 | 0.00 | 0.00 | 87 | 1011.3 |
| 20260505172345 | 57 | 194 | 11.3 | 13.9 | 0.00 | 0.00 | 0.00 | 87 | 1011.4 |
| 20260505171845 | 57 | 191 | 13.0 | 15.6 | 0.00 | 0.00 | 0.00 | 87 | 1011.6 |
| 20260505171342 | 58 | 198 | 10.4 | 13.0 | 0.00 | 0.00 | 0.00 | 87 | 1011.5 |
| 20260505170838 | 58 | 181 | 9.6 | 14.8 | 0.00 | 0.00 | 0.00 | 87 | 1011.6 |
| 20260505170335 | 58 | 208 | 10.4 | 13.9 | 0.00 | 0.00 | 0.00 | 87 | 1011.5 |
| 20260505165831 | 57 | 178 | 7.8 | 13.0 | 0.00 | 0.00 | 0.00 | 87 | 1011.6 |
| 20260505165326 | 58 | 174 | 10.4 | 13.0 | 0.00 | 0.00 | 0.00 | 87 | 1011.5 |
| 20260505164822 | 57 | 188 | 7.0 | 13.9 | 0.00 | 0.00 | 0.00 | 88 | 1011.8 |
| 20260505164320 | 57 | 186 | 8.7 | 13.9 | 0.00 | 0.00 | 0.00 | 87 | 1011.9 |
| 20260505163818 | 57 | 180 | 7.0 | 11.3 | 0.00 | 0.00 | 0.00 | 88 | 1012.0 |
| 20260505163316 | 57 | 186 | 7.0 | 12.2 | 0.00 | 0.00 | 0.00 | 88 | 1011.8 |
| 20260505162814 | 57 | 212 | 8.7 | 11.3 | 0.00 | 0.00 | 0.00 | 88 | 1011.9 |
| 20260505162310 | 57 | 189 | 7.0 | 12.2 | 0.00 | 0.00 | 0.00 | 88 | 1011.9 |
| 20260505161807 | 57 | 195 | 7.8 | 11.3 | 0.00 | 0.00 | 0.00 | 88 | 1012.0 |
| 20260505161304 | 58 | 213 | 7.0 | 11.3 | 0.00 | 0.00 | 0.00 | 88 | 1012.3 |
| 20260505160802 | 57 | 205 | 6.1 | 8.7 | 0.00 | 0.00 | 0.00 | 88 | 1012.1 |
| 20260505160259 | 57 | 215 | 5.2 | 9.6 | 0.00 | 0.00 | 0.00 | 89 | 1012.4 |
| 20260505153238 | 57 | 202 | 6.1 | 7.8 | 0.00 | 0.00 | 0.00 | 90 | 1012.4 |
| 20260505152736 | 56 | 194 | 5.2 | 7.8 | 0.00 | 0.00 | 0.00 | 90 | 1012.5 |
| 20260505152232 | 56 | 202 | 5.2 | 7.0 | 0.00 | 0.00 | 0.00 | 90 | 1012.7 |
| 20260505151732 | 56 | 206 | 4.3 | 5.2 | 0.00 | 0.00 | 0.00 | 90 | 1012.7 |
| 20260505151230 | 56 | 205 | 4.3 | 6.1 | 0.00 | 0.00 | 0.00 | 91 | 1012.7 |
| 20260505150726 | 56 | 207 | 3.5 | 7.8 | 0.00 | 0.00 | 0.00 | 91 | 1012.6 |
| 20260505150223 | 56 | 195 | 4.3 | 7.0 | 0.00 | 0.00 | 0.00 | 91 | 1012.7 |